Lid_Strength_Index
-1 -1 -2 -0 -0 1 0 -0 -0 -1 -1 -1 -1 -1 -0 -0 0 3 5 2 1 -1 -0 2 3 3 3 5 5 7 11 14 13 12 11 10 11 10 9 9 8 6 7 5 3
-1 -2 -1 -2 -2 -1 -1 -2 -1 0 -0 -1 0 -1 -0 -1 2 4 1 -2 -2 -1 3 4 5 4 7 7 6 8 12 11 9 9 10 10 11 10 10 10 9 7 5 4 3
-2 -2 -2 -2 -2 -2 -1 -2 -2 -2 -1 1 1 2 1 -0 7 8 -1 -2 -3 -1 2 3 3 5 8 8 8 9 11 9 8 8 7 8 10 8 10 11 10 8 6 5 5
-2 -2 -2 -2 -2 -2 -2 -2 -2 -2 -2 -2 0 1 1 4 16 2 -2 -2 -2 0 2 3 5 8 9 10 8 11 8 8 7 7 7 8 8 9 9 9 7 7 4 4 5
-1 -2 -2 -2 -2 -2 -2 -2 -2 -2 -2 -2 -1 -1 1 8 9 2 -1 -1 0 1 4 5 7 8 10 9 8 10 9 7 7 7 8 7 8 8 8 7 7 7 4 5 4
-1 -1 -1 -1 -2 -2 -2 -2 -2 -2 -2 -1 -1 -1 4 12 5 2 1 1 1 2 4 4 6 6 8 9 9 8 8 8 8 8 8 8 8 8 8 8 8 7 6 5 4
-1 -1 -1 -1 -1 -2 -2 -2 -2 -2 -2 -1 -1 1 5 9 3 3 2 1 1 2 4 3 4 6 7 9 7 8 10 9 9 8 8 8 10 10 7 7 8 8 8 7 6
-1 -1 -1 -1 -1 -2 -2 -2 -2 -2 -2 -1 -1 3 10 3 3 3 4 2 1 1 2 2 3 5 7 6 8 11 10 14 10 8 8 8 14 10 8 8 8 8 9 8 8
-1 -1 -1 -1 -1 -1 -2 -2 -1 -2 -2 -1 3 6 9 3 7 5 3 3 3 2 2 2 4 7 8 11 13 12 16 14 12 8 9 10 13 9 8 9 9 9 9 9 8
-1 -1 -1 -1 -1 -1 -2 -2 -1 -1 0 2 3 7 7 8 6 4 4 4 4 4 6 6 7 10 11 12 17 15 16 14 14 11 10 11 13 10 8 9 10 9 9 9 8
-1 -1 -1 -1 -2 -2 -1 1 4 5 4 8 8 8 7 6 4 6 3 3 4 6 11 9 11 13 11 11 11 12 14 14 12 9 12 12 12 11 10 10 10 9 10 9 9
-1 -1 -1 -1 -2 -2 0 4 4 3 8 5 6 7 6 5 8 6 3 7 8 11 9 12 13 10 9 10 12 13 15 15 11 10 11 12 13 12 11 11 10 10 10 9 9
-1 -1 -1 -1 -1 -0 2 3 2 2 8 7 6 6 6 6 8 8 5 6 9 11 11 13 12 9 10 12 13 13 14 15 14 11 11 14 15 14 12 12 10 10 9 9 9
-1 -1 -1 -1 1 1 3 1 1 1 12 11 8 7 7 6 9 5 4 6 9 11 11 11 9 10 11 12 12 14 11 11 13 14 18 14 20 16 14 12 12 11 11 11 11
-1 -1 -1 -1 2 4 2 1 1 3 20 9 8 4 6 9 8 8 4 7 11 11 11 14 12 12 12 12 10 12 10 11 12 14 16 17 18 18 15 15 12 11 11 11 10
-1 -1 -1 0 1 2 1 1 3 13 19 12 8 10 10 9 9 8 8 6 7 11 12 13 10 11 11 9 9 9 11 12 12 14 19 16 17 19 17 15 14 12 12 11 9
-1 -1 -0 -0 4 0 1 4 14 17 10 13 12 10 10 11 10 9 10 10 13 15 15 13 12 11 10 12 10 10 13 19 20 20 20 17 17 16 14 12 12 11 11 10 9
-1 -1 -0 0 -0 0 2 10 17 14 13 10 10 10 12 10 11 11 11 12 10 14 16 15 17 12 10 11 13 12 13 18 23 21 20 16 19 16 12 11 10 10 10 10 10
-1 1 1 0 -0 0 7 15 14 12 11 11 10 13 13 11 11 11 12 12 10 10 16 17 17 12 10 9 9 13 15 11 16 18 20 18 17 13 11 11 11 11 10 11 11
2 3 3 -0 -0 3 10 13 12 10 10 10 14 11 14 13 13 12 12 10 11 8 9 12 16 12 10 9 9 11 10 16 15 21 22 19 18 17 14 12 11 11 10 11 11
3 7 2 -0 1 7 13 12 11 9 9 11 13 12 12 13 12 13 13 10 8 9 8 10 12 13 11 13 13 13 14 13 13 16 19 22 19 14 13 12 12 12 10 10 10
4 10 2 1 9 9 12 10 8 9 9 9 10 11 11 11 12 12 13 11 7 8 12 10 12 16 14 11 9 9 12 12 17 18 16 17 17 12 12 12 11 11 11 10 9
8 7 2 2 12 12 10 10 9 9 9 10 11 10 10 11 13 11 11 8 8 8 11 9 13 19 17 13 12 12 11 11 12 13 16 19 16 12 12 11 10 9 9 9 10
7 11 7 6 9 11 13 11 11 8 9 9 10 9 11 11 10 12 11 9 8 8 7 7 13 14 16 15 12 14 13 11 13 16 15 15 13 13 12 11 10 10 9 9 10
9 11 9 11 10 11 11 11 11 12 9 9 11 10 11 14 12 13 10 10 9 7 8 9 15 13 12 13 13 13 13 12 14 13 15 13 13 11 10 10 10 10 9 9 10
10 10 10 11 9 10 10 12 13 11 10 11 11 10 10 12 11 12 11 10 11 9 10 9 15 13 14 12 12 14 13 12 12 12 12 12 12 9 9 9 9 8 8 9 10
8 9 9 8 9 10 13 13 12 10 10 9 9 10 11 10 9 9 8 8 8 10 11 11 14 15 17 13 14 16 13 12 12 11 11 14 11 9 9 9 9 8 8 8 9